Home > Weather > Evansville > Past weeks

Flag for USA Past Weather in Evansville, Indiana, USA — Yesterday and Last 2 Weeks

Now
73 °F

Clear.


Feels Like: 76 °F
Forecast: 64 / 81 °F
Wind: 5 mph from Southeast

Location: Evansville Regional Airport

Current Time: May 24, 2016 at 10:27:01 PM

Latest Report: May 24, 2016 at 9:54 PM


Visibility: 10 mi

Pressure: 30.03 "Hg

Humidity: 59%

Dew Point: 58 °F

Location of EvansvilleLocation

Past Weather in Evansville — Graph

°F

Evansville Temperature Yesterday

Maximum temperature yesterday: 81 °F (at 4:54 PM)
Minimum temperature yesterday: 54 °F (at 4:54 AM)
Average temperature yesterday: 67 °F

High & Low Weather Summary for the Past Weeks

 TemperatureHumidityPressure
High81 °F (May 23, 4:54 PM)100% (May 11, 12:57 AM)30.27 "Hg (May 11, 12:57 AM)
Low40 °F (May 15, 2:54 AM)26% (May 23, 4:54 PM)29.86 "Hg (May 10, 1:54 AM)
Average60 °F73%30.07 "Hg
* Reported May 9 8:54 PM — May 24 8:54 PM, Evansville, Weather by CustomWeather, © 2016

Note: Actual official high and low records may vary slightly from our data, if they occured in-between our weather recording intervals... More about our weather records

Advertising

Evansville Weather History for the Previous 24 Hours

Scroll right to see more
 ConditionsComfort  
Time TempWeatherWind HumidityBarometerVisibility
8:54 PM
Tue, May 24
75 °FPassing clouds.5 mph55%30.01 "Hg10 mi
7:54 PM77 °FMore clouds than sun.6 mph48%30.01 "Hg10 mi
6:54 PM78 °FBroken clouds.6 mph46%30.02 "Hg10 mi
5:54 PM80 °FPartly sunny.7 mph45%30.03 "Hg10 mi
4:54 PM77 °FOvercast.10 mph50%30.04 "Hg10 mi
3:54 PM79 °FOvercast.9 mph42%30.05 "Hg10 mi
2:54 PM81 °FPassing clouds.9 mph42%30.05 "Hg10 mi
1:54 PM80 °FOvercast.6 mph45%30.05 "Hg10 mi
12:54 PM78 °FOvercast.10 mph45%30.08 "Hg10 mi
11:54 AM77 °FOvercast.10 mph48%30.09 "Hg10 mi
10:54 AM78 °FScattered clouds.7 mph46%30.09 "Hg10 mi
9:54 AM73 °FSunny.3 mph53%30.08 "Hg10 mi
8:54 AM70 °FSunny.5 mph53%30.08 "Hg10 mi
7:54 AM66 °FSunny.No wind61%30.07 "Hg10 mi
6:54 AM60 °FSunny.No wind75%30.06 "Hg10 mi
5:54 AM54 °FSunny.No wind86%30.05 "Hg10 mi
4:54 AM55 °FClear.No wind87%30.03 "Hg10 mi
3:54 AM56 °FClear.No wind81%30.04 "Hg10 mi
2:54 AM57 °FClear.No wind78%30.02 "Hg10 mi
1:54 AM59 °FClear.No wind69%30.00 "Hg10 mi
12:54 AM60 °FClear.No wind67%29.99 "Hg10 mi
11:54 PM
Mon, May 23
64 °FClear.No wind58%29.99 "Hg10 mi
10:54 PM65 °FClear.No wind59%29.99 "Hg10 mi
Weather by CustomWeather, © 2016

See weather overviewHow to use our weather pages